TimeCST,TemperatureF,Dew PointF,Humidity,Sea Level PressureIn,VisibilityMPH,Wind Direction,Wind SpeedMPH,Gust SpeedMPH,PrecipitationIn,Events,Conditions,WindDirDegrees,DateUTC
12:42 AM,53.6,51.8,94,30.26,6.0,Calm,Calm,-,N/A,,Mostly Cloudy,0,2012-10-29 06:42:00
1:43 AM,51.8,50.0,94,30.26,6.0,Calm,Calm,-,N/A,,Mostly Cloudy,0,2012-10-29 07:43:00
2:45 AM,51.8,50.0,94,29.92,6.0,Calm,Calm,-,N/A,,Mostly Cloudy,0,2012-10-29 08:45:00
2:50 AM,58,55,85,29.86,5,WSW,4.5,,,,Partly Cloudy,240,2012-10-29 08:50:00
3:43 AM,51.8,50.0,94,30.24,6.0,Calm,Calm,-,N/A,,Mostly Cloudy,0,2012-10-29 09:43:00
4:42 AM,50.0,48.2,94,30.24,6.0,Calm,Calm,-,N/A,,Mostly Cloudy,0,2012-10-29 10:42:00
5:44 AM,50.0,48.2,94,29.89,6.0,Calm,Calm,-,N/A,,Mostly Cloudy,0,2012-10-29 11:44:00
5:50 AM,55,53,89,29.89,5,WSW,4.5,,,,,240,2012-10-29 11:50:00
6:44 AM,50.0,48.2,94,30.28,5.0,Calm,Calm,-,N/A,,Mostly Cloudy,0,2012-10-29 12:44:00
7:45 AM,53.6,51.8,94,30.30,5.0,Calm,Calm,-,N/A,,Mostly Cloudy,0,2012-10-29 13:45:00
8:55 AM,60,55,78,30.00,6,SSE,2.2,,,,Partly Cloudy,160,2012-10-29 14:55:00
8:55 AM,59.0,55.4,88,29.94,5.0,Calm,Calm,-,N/A,,Mostly Cloudy,0,2012-10-29 14:55:00
9:45 AM,64.4,55.4,73,30.34,6.0,WSW,4.6,-,N/A,,Mostly Cloudy,240,2012-10-29 15:45:00
10:47 AM,69.8,53.6,56,30.33,6.0,ENE,3.5,-,N/A,,Mostly Cloudy,70,2012-10-29 16:47:00
11:46 AM,71.6,53.6,53,29.91,6.0,Calm,Calm,-,N/A,,Mostly Cloudy,0,2012-10-29 17:46:00
12:00 PM,74,54,40,29.98,7,SSE,2.2,,,,,160,2012-10-29 18:00:00
12:46 PM,75.2,51.8,44,30.26,7.0,NNW,2.3,-,N/A,,Mostly Cloudy,330,2012-10-29 18:46:00
1:48 PM,75.2,51.8,44,30.22,7.0,Calm,Calm,-,N/A,,Mostly Cloudy,0,2012-10-29 19:48:00
2:50 PM,75,58,46,29.84,7,ENE,4.5,,,,Partly Cloudy,60,2012-10-29 20:50:00
3:45 PM,77.0,57.2,50,30.17,7.0,South,8.1,-,N/A,,Mostly Cloudy,170,2012-10-29 21:45:00
4:47 PM,71.6,55.4,57,30.17,7.0,South,10.4,-,N/A,,Mostly Cloudy,190,2012-10-29 22:47:00
5:50 PM,68,58,62,29.79,7,South,4.5,,,,Partly Cloudy,170,2012-10-29 23:50:00
5:54 PM,66.2,55.4,68,29.87,7.0,SSE,6.9,-,N/A,,Mostly Cloudy,160,2012-10-29 23:54:00
7:08 PM,62.6,55.4,77,30.23,7.0,WSW,3.5,-,N/A,,Mostly Cloudy,240,2012-10-30 01:08:00
7:46 PM,62.6,55.4,77,30.25,6.0,WSW,4.6,-,N/A,,Mostly Cloudy,240,2012-10-30 01:46:00
8:40 PM,57.2,53.6,88,29.99,6.0,NNW,5.8,-,N/A,Rain,Light Rain,340,2012-10-30 02:40:00
8:50 PM,63,48,48,29.90,5,North,4.5,,,Rain,Light Freezing Drizzle,0,2012-10-30 02:50:00
9:48 PM,55.4,53.6,94,30.35,6.0,Calm,Calm,-,N/A,Rain,Light Rain,0,2012-10-30 03:48:00
10:47 PM,55.4,53.6,94,30.22,6.0,Calm,Calm,-,N/A,,Overcast,0,2012-10-30 04:47:00
11:50 PM,57,51,73,29.92,5,SW,4.5,,,,Partly Cloudy,220,2012-10-30 05:50:00
11:51 PM,55.4,53.6,94,29.91,6.0,Calm,Calm,-,N/A,,Overcast,0,2012-10-30 05:51:00